Reflectivity
-20 -20 -20 -20 -20 -20 -20 -20 -20 -20 -20 -20 -20 -20 -20 -20 -20 -20 -20 -20 -20 -20 -20 -20 -20 -20 -20 -20 -20 -20 -20 -20 -20 -20 -20 -20 -20 -20 -20 -20 -20 -20 -20 -20 -20 -20 -20 -20 -20
-20 -20 -20 -20 -20 -20 -20 -20 -20 -20 -20 -20 -20 -20 -20 -20 -20 -20 -20 -20 -20 -20 -20 -20 -20 -20 -20 -20 -8 -20 -20 -20 -20 -20 -20 -20 -20 -20 -20 -20 -20 -20 -20 -20 -20 -20 -20 -20 -20
-20 -20 -20 -20 -20 -20 -20 -20 -20 -20 -20 -20 -20 -20 -20 -20 -20 -20 -20 -20 -20 -20 -20 -20 -20 -20 -20 -20 -17 -20 -20 -20 -20 -20 -20 -20 -20 -20 -20 -20 -20 -20 -20 -15 5 -20 -20 -20 -20
-20 -20 -20 -20 -20 -20 -20 -20 -20 -20 -20 -20 -20 -20 -20 -20 -20 -20 -20 -20 -20 -20 -20 -20 -20 -20 -20 -20 -20 -20 -20 -20 -20 -20 -20 -20 -20 -20 -20 -20 -20 -20 -20 -20 -20 -20 -20 -20 -20
-20 -20 -20 -20 -20 -20 -20 -20 -20 -20 -20 -20 -20 -20 -20 -20 -20 -20 -20 -20 -20 -20 -20 -20 -20 -20 -20 -20 -20 -20 -20 -20 -20 -20 -20 -20 -20 -20 -20 -20 -20 -20 -20 4 -1 -20 -20 -20 -20
-20 -20 -20 -20 -20 -20 -20 -20 -20 -20 -20 -20 -20 -20 -20 -20 -20 -20 -20 -20 -20 -20 -20 -20 -20 -20 -20 -20 -20 -20 -20 -20 -20 -20 -20 -20 -20 -20 -20 -20 -20 -20 -20 -20 -20 -20 -20 -20 -20
-20 -20 -20 -20 -20 -20 -20 -20 -20 -20 -20 -20 -20 -20 -20 -20 -20 -20 -20 -20 -20 -20 -20 -20 -20 -20 -20 -20 -20 -20 -20 -20 -20 -20 -20 -20 -20 -20 -20 -20 -20 -20 -20 -20 -20 -20 -20 -20 -20
-20 -20 -20 -20 -20 -20 -20 -20 -20 -20 -20 -20 -20 -20 -20 -20 -20 -20 -20 -20 -20 -20 -20 -20 -20 -20 -20 -20 -20 -20 -20 -20 -20 -20 -20 -20 -20 -20 -20 -20 -20 -20 -20 -20 -20 -20 -20 -20 -20
-20 -20 -20 -20 -20 -20 -20 -20 -20 -20 -20 -20 -20 -20 -20 -20 -20 -20 -20 -20 -20 -20 -20 -20 -20 -20 -20 -20 -20 -20 -20 -20 -20 -20 -20 -17 -20 -20 -20 -20 -20 -20 -20 -20 -20 -20 -20 -20 -20
-20 -20 -20 -20 -20 -20 -20 -20 -20 -20 -20 -20 -20 -20 -20 -20 -20 -20 -20 -20 -20 -20 -20 -20 -20 -20 -20 -20 -20 -20 -7 -20 -20 -20 -20 -20 -20 -20 -7 -2 -20 -20 -20 -20 -20 -20 -20 -20 -20
-20 -20 -20 -20 -20 -20 -20 -20 -20 -20 -20 -20 -20 -20 -20 -20 -20 -20 -20 -20 -20 -20 -20 -20 -20 -20 -20 -1 -20 -20 -20 -20 -20 -20 -20 -20 -20 -20 -18 -1 -20 -20 -20 -20 -20 -20 -20 -20 -20
-20 -20 -20 -20 -20 -20 -20 -20 -20 -20 -20 -20 -20 -20 -20 -20 -20 -20 -20 -20 -20 -20 -20 -20 -20 -9 12 -0 -20 -9 -20 -20 -20 -14 -15 -20 -20 -20 -20 -6 -20 -20 -20 -20 -20 -20 -20 -20 -20
-20 -20 -20 -20 -20 -20 -20 -20 -20 -20 -20 -20 -20 -20 -20 -20 -20 -20 -20 -20 -20 -20 -20 -20 -20 -20 11 11 2 7 3 1 -20 -20 -20 -20 -20 -20 -20 -20 -20 -20 -20 -20 -20 -20 -20 -20 -20
-20 -20 -20 -20 -20 -20 -20 -20 -20 -20 -20 -20 -20 -20 -20 -20 -20 -20 -20 -20 -20 -20 -20 -20 -20 -20 -20 10 -7 -0 2 -4 1 -16 -20 -20 -20 -20 -20 -20 -20 -20 -20 -20 -20 -20 -20 -20 -20
-20 -20 -20 -20 -20 -20 -20 -20 -20 -20 -20 -20 -20 -20 -20 -20 -20 -20 -20 -20 -20 -20 -20 -20 -20 -20 -20 -20 1 9 -2 3 7 -7 -16 -15 -20 -20 -20 -20 -20 -20 -20 -20 -20 -20 -20 -20 -20
-20 -20 -20 -20 -20 -20 -20 -20 -20 -20 -20 -20 -20 -20 -20 -20 -20 -20 -20 -20 -20 -20 -20 -20 -20 -20 -16 33 29 20 13 -10 33 29 35 2 -19 -20 6 2 -11 -14 -20 -4 -20 -20 -19 7 -20
-20 -20 -20 -20 -20 -20 -20 -20 -20 -20 -20 -20 -20 -20 -20 -20 -20 -20 -20 -20 -20 -20 -20 -20 -20 -20 -11 -0 -12 16 17 -7 6 21 21 -7 -12 1 27 17 -19 -3 -20 -20 -20 -20 -6 -20 -15
-20 -20 -20 -20 -20 -20 -20 -20 -20 -20 -20 -20 -20 -20 -20 -20 -20 -20 -20 -20 -20 -20 -20 -20 -20 -20 -18 -10 -18 14 3 4 33 17 13 26 -9 -9 7 20 10 -11 -20 -20 -20 -20 -20 -20 -20
-20 -20 -20 -20 -20 -20 -20 -20 -20 -20 -20 -20 -20 -20 -20 -20 -20 -20 -20 -20 -20 -20 -20 -20 -20 -20 -20 -20 -10 14 18 6 32 2 33 -1 -15 -20 -10 18 18 -4 10 -3 -20 -9 9 -20 -20
-20 -20 -20 -20 -20 -20 -20 -20 -20 -20 -20 -20 -20 -20 -20 -20 -20 -20 -20 -20 -20 -20 -20 -20 -19 10 -18 23 -8 -20 18 33 29 32 25 33 30 8 5 6 -20 -20 3 -20 9 -20 -20 -20 -20
-20 -20 -20 -20 -20 -20 -20 -20 -20 -20 -20 -20 -20 -20 -20 -20 -20 -20 -20 -20 -20 -20 -20 30 -9 31 -14 -20 4 -15 23 21 31 17 5 22 31 13 10 -8 -12 15 23 -18 -12 -20 -20 -20 -20
-20 -20 -20 -20 -20 -20 -20 -20 -20 -20 -20 -20 -20 -20 -20 -20 -20 -20 -20 -20 -20 -20 -20 -20 -15 30 -18 1 20 -5 12 20 11 29 23 7 29 30 15 0 -10 13 -17 -20 -20 -20 -20 -20 -20
-20 -20 -20 -20 -20 -20 -20 -20 -20 -20 -20 -20 -20 -20 -20 -20 -20 -20 -20 -20 -20 -20 -20 -20 -20 -20 -20 3 -8 3 -7 -19 27 -18 26 24 19 33 29 10 28 -3 -6 4 -7 -20 -20 -20 -20
-20 -20 -20 -20 -20 -20 -20 -20 -20 -20 -20 -20 -20 -20 -20 -20 -20 -20 -20 -20 -20 -20 -20 -20 -20 -20 -20 -7 18 12 6 -12 -20 -20 -20 20 23 23 14 24 22 -16 18 -20 12 -20 10 -20 -20
-20 -20 -20 -20 -20 -20 -20 -20 -20 -20 -20 -20 -20 -15 -20 -20 -20 -20 -20 -20 -20 -20 -20 -20 -20 -20 -20 -20 -20 7 18 13 -7 -20 -2 -15 -20 -8 16 28 19 22 20 5 -11 2 -7 -15 -20
-20 -20 -20 -20 -20 -20 -20 -20 -20 -20 -20 -20 -20 -20 -17 -20 11 16 10 -5 4 -20 -20 4 9 4 -10 -20 -19 -18 -19 -2 6 10 -17 1 -13 -20 -20 -20 -18 26 21 20 20 16 -20 -20 -20
-20 -20 -20 4 -20 -20 -20 -20 -20 -20 -20 -20 -20 -20 -20 -20 -8 16 15 -2 9 16 20 20 14 11 10 10 -4 -20 -19 -20 -18 -7 0 11 0 -7 -17 -20 -20 -20 28 22 7 16 2 -2 9
-20 -20 -20 -20 -9 -20 -20 -20 -20 -20 -20 -20 -20 -20 -20 -20 -20 -2 9 4 6 -18 -20 -20 -20 -20 -20 -0 -13 -20 -4 -8 6 -20 -3 0 -5 -1 12 7 -7 9 7 18 14 16 -8 -14 11
-20 -20 -2 -3 -7 -7 -6 -17 -20 -20 -20 -20 -20 -20 -20 -14 -15 5 -1 -6 -18 -20 -20 -20 -20 -20 -20 -20 -20 -20 16 21 -20 11 9 -10 7 15 25 18 14 11 22 37 16 25 20 0 14
-20 -20 -18 4 -2 12 19 3 -20 -20 -20 -20 -20 -20 -20 -20 -20 -20 -20 -20 -20 -20 -20 -20 -20 -20 -20 -20 -20 -20 -18 15 6 -20 -20 -20 -8 2 27 18 22 20 19 15 28 22 32 34 39
Wind_Speed
5 4 1 3 4 2 7 12 6 9 4 5 7 7 1 3 4 5 1 8 19 15 11 13 17 18 18 18 20 19 19 19 19 19 19 18 18 18 17 16 16 15 15 14 13 12 11 10 9
1 2 1 3 3 1 8 17 13 5 5 9 7 2 2 2 2 8 6 12 17 14 10 10 14 16 16 17 20 20 21 20 19 20 20 19 18 17 17 16 15 16 14 13 12 11 9 8 6
1 3 2 4 4 9 7 7 7 5 7 4 4 3 4 6 5 7 8 15 17 15 12 12 15 13 14 17 20 22 22 22 22 21 21 21 20 18 16 16 17 17 14 13 11 9 8 6 4
1 4 5 2 14 16 17 14 2 6 4 7 5 4 5 5 9 8 8 10 14 14 13 12 12 13 13 15 18 19 21 22 22 22 21 20 19 17 16 15 16 18 17 16 13 9 7 5 4
1 1 3 5 11 14 16 9 8 6 4 3 6 3 8 4 16 17 11 8 9 8 13 15 13 13 13 16 16 16 17 17 19 21 21 20 19 16 12 12 14 15 19 17 13 10 7 5 5
2 2 2 5 11 9 12 5 5 5 2 5 2 2 4 15 14 12 16 14 9 12 12 13 17 17 14 13 16 15 15 14 14 16 17 18 17 17 17 17 16 15 15 17 16 12 9 5 6
5 1 8 11 13 13 7 4 5 3 3 3 1 1 5 8 10 9 9 9 10 13 12 8 9 12 13 14 15 16 16 15 14 14 15 16 17 17 18 17 15 15 12 18 16 12 9 6 13
5 3 9 10 11 14 4 2 3 2 3 5 3 1 6 9 13 12 9 9 9 11 12 11 7 6 8 9 14 14 14 16 17 15 18 17 17 17 17 16 16 13 13 16 17 14 7 8 14
3 3 12 9 14 16 10 9 5 3 5 1 1 2 10 15 13 11 10 6 6 8 11 11 11 10 8 6 10 14 16 17 19 21 22 15 9 10 11 14 12 15 15 15 15 13 10 10 17
5 6 9 10 17 16 18 11 9 3 5 2 4 4 17 19 18 17 15 13 8 10 11 12 13 12 11 9 9 9 11 9 10 10 11 8 9 7 10 14 14 12 14 14 14 12 10 8 7
9 15 15 10 17 16 16 14 6 9 6 6 4 3 9 7 9 13 13 15 16 10 9 11 12 14 15 11 9 6 6 7 7 11 9 8 8 9 8 7 5 4 9 2 4 6 4 7 6
10 15 15 19 16 10 9 8 9 7 9 7 9 6 3 13 13 13 14 14 15 16 13 11 12 9 11 8 10 9 8 8 8 10 11 9 7 9 10 7 5 4 4 5 3 2 3 7 12
14 14 12 10 9 8 7 9 7 10 9 10 10 10 10 9 15 15 15 15 16 17 17 18 14 11 8 11 9 8 9 8 9 10 10 9 10 10 9 9 7 4 4 4 4 2 4 6 9
6 14 13 11 11 10 8 14 6 18 14 12 13 13 12 13 13 13 14 12 16 19 19 18 18 16 15 10 11 9 8 9 9 10 11 12 10 9 10 10 9 5 7 5 5 5 5 5 10
7 9 14 16 13 18 17 13 18 20 11 9 1 1 2 6 6 5 9 10 13 15 18 18 15 12 16 16 12 8 9 10 9 10 13 8 10 11 10 10 9 7 5 7 5 5 6 7 9
11 8 8 17 15 18 8 17 19 15 8 8 8 5 4 5 9 8 9 9 10 16 18 17 10 14 15 14 12 9 9 9 9 9 10 10 10 8 10 11 10 9 7 6 6 5 7 7 10
6 9 14 20 17 8 4 8 7 6 4 7 7 8 9 9 8 10 10 8 7 16 17 16 14 16 14 14 11 11 11 8 8 8 9 10 12 14 10 10 9 10 9 7 7 8 10 10 9
7 6 8 10 9 16 16 18 6 6 8 8 8 6 8 9 13 10 11 9 8 14 16 17 13 13 12 10 8 8 9 9 8 9 10 12 9 10 10 8 11 10 9 8 7 10 8 9 10
11 12 12 12 10 16 16 14 10 7 9 11 10 9 8 9 7 3 4 5 7 14 18 16 15 13 10 8 6 6 10 8 9 9 14 13 11 14 13 10 11 10 11 12 11 12 14 6 10
13 13 15 8 8 11 17 19 9 6 9 10 8 10 10 9 12 17 17 17 3 11 11 13 12 11 10 7 6 3 4 4 6 6 7 13 14 14 12 13 13 13 10 12 12 15 10 8 10
6 8 6 13 9 4 13 18 3 5 8 10 11 10 5 13 13 14 17 17 17 9 8 11 11 11 10 10 6 4 3 1 3 5 7 8 13 15 14 14 12 13 11 11 15 16 18 14 6
10 10 7 7 10 4 11 17 16 5 8 13 14 15 13 14 14 16 14 14 13 13 9 4 4 9 10 14 11 11 6 6 6 7 7 10 12 14 14 14 15 16 12 14 15 15 15 17 14
17 4 3 2 4 12 8 4 12 10 3 12 16 19 19 18 14 10 8 7 6 7 7 5 7 7 8 11 12 11 9 7 5 6 10 11 12 14 15 16 15 16 12 13 15 17 16 15 14
5 3 6 2 1 9 13 8 7 3 4 15 16 16 16 16 16 15 15 15 12 9 6 4 4 8 9 10 11 14 14 11 7 8 9 9 9 10 14 13 14 15 13 15 15 16 17 16 14
3 4 5 6 3 11 3 8 4 11 16 16 14 15 13 12 15 15 12 9 8 8 7 6 4 1 8 11 11 12 13 14 13 11 9 11 10 12 15 16 13 12 12 12 14 15 15 17 14
4 4 6 8 4 5 7 7 5 14 13 12 11 9 14 17 17 14 15 13 9 8 8 9 7 5 8 12 13 12 12 7 8 9 10 10 11 14 17 18 16 17 16 14 15 13 11 16 14
2 2 1 2 1 4 6 9 13 12 12 11 13 13 14 14 11 9 9 8 12 14 16 13 8 7 7 11 13 14 12 11 10 9 8 9 12 12 16 18 18 16 17 15 17 13 14 14 15
6 2 1 3 5 8 5 12 6 11 15 17 14 11 11 8 11 15 11 8 7 7 8 8 10 16 15 11 12 12 14 14 12 9 10 10 9 12 13 17 17 15 16 14 17 13 15 15 12
4 3 1 1 5 5 6 8 4 8 15 18 21 22 16 15 15 9 12 5 5 5 7 8 7 13 15 15 9 13 12 11 7 7 8 9 7 10 13 16 16 16 15 13 14 11 13 12 10
8 7 7 4 4 4 1 10 10 18 18 20 17 16 16 14 12 12 13 9 10 11 14 9 9 9 6 3 3 5 7 8 9 10 11 8 10 10 13 15 14 13 14 12 13 12 10 12 8
Wind_Direction
167 192 211 11 40 101 256 261 211 272 66 94 72 69 213 208 241 208 85 140 126 140 149 143 141 140 145 145 141 141 137 135 134 127 125 123 123 121 120 119 119 118 112 110 102 99 90 83 76
236 241 290 268 130 277 274 249 253 110 104 71 73 79 304 94 55 104 108 129 129 136 144 144 141 142 148 145 143 145 142 140 137 135 133 132 133 132 131 131 129 122 115 104 103 94 86 79 70
350 165 95 171 197 219 238 255 128 119 97 96 52 180 141 118 117 138 153 135 134 144 140 149 145 146 148 149 151 151 149 146 145 145 146 147 144 142 145 146 147 120 115 113 105 94 90 77 66
357 353 324 232 258 259 235 265 127 104 83 104 148 325 52 131 136 129 126 112 133 147 140 147 143 145 148 151 155 153 153 153 153 152 152 150 148 148 147 150 133 124 126 120 119 113 104 88 57
10 305 244 246 263 274 271 232 117 101 30 147 150 237 124 35 115 129 122 112 125 132 146 151 150 156 152 153 154 153 155 156 157 156 153 151 149 143 129 108 106 117 126 127 123 117 108 90 67
337 138 315 257 271 280 289 200 83 93 116 310 128 169 107 134 127 141 137 143 151 135 146 156 159 159 155 153 151 150 152 154 155 150 148 146 140 127 121 116 119 122 127 131 124 124 117 97 63
181 75 252 270 288 300 302 14 53 50 154 319 11 174 129 115 130 124 128 148 132 140 140 149 163 164 153 149 151 151 153 153 148 141 136 126 122 123 123 122 119 120 140 123 122 124 126 127 75
184 137 288 279 289 288 251 76 105 97 264 333 99 231 162 167 135 129 132 130 131 143 140 150 151 158 161 162 150 151 148 148 141 132 124 121 127 129 124 117 119 136 139 127 130 132 136 130 86
216 255 260 269 280 285 342 354 307 284 149 265 269 339 150 143 136 135 139 140 131 144 150 155 157 160 161 160 164 153 152 144 139 137 132 129 136 132 128 119 131 146 141 140 140 138 147 119 97
205 240 246 248 271 286 305 319 311 341 309 286 274 259 153 159 162 161 162 169 165 166 164 164 162 164 163 167 169 161 156 152 146 139 134 133 136 131 117 126 136 142 136 142 145 150 153 121 107
238 241 247 246 248 272 289 304 328 343 331 276 270 280 173 168 164 166 174 175 183 171 173 172 168 169 169 166 166 165 162 152 147 147 140 139 131 124 121 123 128 133 126 141 172 155 146 131 116
276 271 262 268 263 248 256 267 291 271 256 262 280 247 211 176 183 188 187 185 174 182 180 177 178 171 172 163 170 166 167 165 155 160 152 147 139 139 136 135 139 139 131 169 238 176 164 116 123
254 265 277 292 300 290 317 291 248 272 276 269 270 271 271 187 192 199 199 194 186 181 184 184 173 174 160 161 172 164 165 157 157 157 162 156 154 150 144 145 149 159 153 159 185 172 117 90 112
275 287 288 292 301 292 271 275 286 269 259 260 247 239 231 225 210 194 206 202 192 189 181 185 185 170 156 165 165 166 163 155 160 165 168 163 161 158 159 151 161 167 173 154 157 140 105 92 108
299 314 305 290 281 272 266 274 256 253 229 253 64 81 353 262 211 207 175 183 197 189 184 182 178 166 161 161 162 169 169 160 173 169 170 155 163 165 166 153 152 153 139 134 127 111 89 89 97
295 293 280 274 265 262 247 259 265 237 216 235 221 196 239 256 210 226 231 221 173 173 176 182 158 156 160 166 164 165 168 172 182 179 170 157 145 153 156 149 148 146 141 147 140 125 109 105 105
224 255 251 274 272 268 255 282 307 330 309 288 273 228 214 232 234 230 234 239 186 180 170 167 158 159 161 162 153 161 172 179 180 180 172 166 171 157 166 154 146 152 146 157 158 144 140 128 117
251 253 291 292 313 325 314 304 298 283 314 281 270 259 247 248 241 229 199 175 187 167 169 165 161 150 149 147 155 159 167 180 186 185 180 170 150 155 153 154 148 153 157 163 152 143 135 132 130
260 284 295 300 305 302 291 291 287 304 347 313 296 287 273 269 241 153 20 316 138 151 157 168 162 157 148 137 145 168 178 178 191 186 179 173 163 162 160 160 157 169 176 174 159 143 137 125 133
276 285 287 291 288 303 295 289 283 288 271 270 267 275 266 256 51 47 30 23 110 151 148 149 159 157 158 163 149 125 164 189 185 181 194 177 174 166 164 165 169 174 178 166 162 155 145 140 158
286 283 305 296 333 298 299 298 311 287 313 308 293 266 9 95 80 65 59 50 43 46 122 160 170 174 157 153 130 92 88 118 183 188 170 199 181 177 173 168 171 177 194 180 170 165 160 158 172
284 272 305 343 5 305 32 299 310 276 313 351 355 49 60 66 61 61 53 52 52 58 63 38 184 192 163 161 165 169 175 190 198 221 195 179 201 191 181 180 178 190 184 185 177 171 169 162 167
285 278 338 339 322 321 153 255 314 312 1 45 48 43 34 29 33 46 54 64 75 77 90 99 183 196 188 178 181 182 176 187 192 183 204 200 193 204 195 182 193 185 188 186 182 175 174 175 171
283 10 337 320 66 275 292 192 308 359 82 68 48 39 29 22 20 17 16 11 9 9 29 50 100 197 194 194 189 186 188 185 180 185 192 191 195 193 199 197 189 188 196 187 187 181 177 177 179
348 57 326 321 176 240 268 310 158 88 62 53 33 26 22 17 7 352 352 350 341 339 335 337 9 298 183 193 193 206 200 196 195 186 194 192 192 193 195 197 187 194 192 190 184 186 180 184 179
329 124 174 243 230 296 358 269 117 93 59 43 47 27 10 358 346 340 338 335 324 302 300 304 296 261 192 190 198 200 203 214 213 205 197 197 202 201 194 194 190 193 186 184 192 191 181 185 183
359 218 145 355 247 244 252 276 291 56 35 34 11 1 351 336 326 320 302 299 305 308 310 306 276 267 236 206 200 199 195 198 205 208 215 213 201 200 194 194 191 187 195 186 181 190 187 186 185
209 281 267 67 255 242 256 270 250 12 8 354 350 346 340 355 339 336 309 280 275 296 304 306 304 298 282 228 209 202 197 200 200 186 199 210 210 188 190 189 188 185 188 188 182 189 188 185 187
282 239 170 29 237 254 257 245 76 43 358 344 335 339 352 356 350 356 340 13 328 311 294 293 291 286 272 276 226 198 195 196 188 202 202 209 210 194 182 188 180 177 187 180 184 175 185 185 185
297 277 276 226 269 256 264 260 347 345 334 328 348 348 341 330 326 322 344 335 342 339 327 336 1 354 360 38 49 189 165 164 180 191 187 198 199 195 190 182 177 177 168 179 173 163 170 166 151